This is the latest recevied weather packets stored in our database for station/object KC9MWQ-13. If no packets are shown the sender has not sent any weather packets the latest 10 day(s).
| Time | Temp. | Humidity | Pressure | Rain* | Wind** | Luminosity | Snow |
|---|---|---|---|---|---|---|---|
| 1777982072 | 13.89° C | 97% | 1006.9 hPa | 0 mm | - | 113 W/m² | - |
| 1777981770 | 13.33° C | 98% | 1007.1 hPa | 0 mm | - | 104 W/m² | - |
| 1777981466 | 13.33° C | 98% | 1007.4 hPa | 0 mm | - | 74 W/m² | - |
| 1777981162 | 13.33° C | 98% | 1007.6 hPa | 0 mm | - | 63 W/m² | - |
| 1777980859 | 13.33° C | 98% | 1007.7 hPa | 0 mm | - | 57 W/m² | - |
| 1777980555 | 13.33° C | 98% | 1008 hPa | 0 mm | - | 56 W/m² | - |
| 1777980253 | 12.78° C | 98% | 1007.6 hPa | 0 mm | - | 51 W/m² | - |
| 1777979949 | 12.78° C | 99% | 1007.7 hPa | 0 mm | - | 46 W/m² | - |
| 1777979643 | 12.78° C | 99% | 1007.4 hPa | 0 mm | - | 31 W/m² | - |
| 1777979340 | 12.78° C | 99% | 1007.1 hPa | 0 mm | - | 23 W/m² | - |
| 1777979037 | 12.78° C | 99% | 1007.3 hPa | 0 mm | - | 16 W/m² | - |
| 1777978734 | 12.78° C | 99% | 1007.1 hPa | 0 mm | - | 10 W/m² | - |
| 1777978430 | 12.78° C | 99% | 1006.9 hPa | 0 mm | - | 7 W/m² | - |
| 1777978126 | 12.22° C | 99% | 1006.9 hPa | 0 mm | - | 4 W/m² | - |
| 1777977824 | 12.22° C | 99% | 1006.8 hPa | 0 mm | - | 3 W/m² | - |
| 1777977520 | 12.22° C | 99% | 1006.8 hPa | 0 mm | - | 1 W/m² | - |
| 1777977218 | 12.22° C | 99% | 1006.9 hPa | 0 mm | - | 0 W/m² | - |
| 1777976915 | 12.22° C | 99% | 1006.6 hPa | 0 mm | - | 0 W/m² | - |
| 1777976612 | 12.22° C | 99% | 1006.7 hPa | 0 mm | - | 0 W/m² | - |
| 1777976307 | 12.22° C | 99% | 1006.7 hPa | 0 mm | - | 0 W/m² | - |
| 1777976003 | 12.22° C | 99% | 1006.3 hPa | 0 mm | - | 0 W/m² | - |
| 1777975698 | 12.22° C | 99% | 1006.4 hPa | 0 mm | - | 0 W/m² | - |
| 1777975396 | 12.22° C | 99% | 1006.3 hPa | 0 mm | - | 0 W/m² | - |
| 1777975091 | 12.22° C | 99% | 1006.2 hPa | 0 mm | - | 0 W/m² | - |
| 1777974789 | 12.78° C | 98% | 1005.9 hPa | 0 mm | - | 0 W/m² | - |
* Rain latest hour (hover to see other rain measurements)
** Current wind speed in m/s (hover to see current wind gust speed)